Flag for Canada Weather past 2 weeks in Qikiqtarjuaq, Nunavut Territory, Canada

Now
37 °F

Low clouds.


Feels Like: 35 °F
Forecast: N/A
Wind: 3 mph from Northeast

Location: Broughton Island Airport

Current Time: Jul 23, 2014 at 7:44:20 PM

Latest Report: Jul 23, 2014 at 7:00 PM


Visibility: 9 mi

Pressure: 29.90 "Hg

Humidity: 93%

Dew point: 36 °F

Location of QikiqtarjuaqLocation

Historic Weather in Qikiqtarjuaq — Graph

°F

Qikiqtarjuaq temperature yesterday

Maximum temperature yesterday: 41 °F (at 6:00 AM)
Minimum temperature yesterday: 36 °F (at 12:00 AM)
Average temperature yesterday: 38 °F

Past Weeks' High & Low Weather Summary

 TemperatureHumidityPressure
High66 °F (Jul 20, 12:00 PM)100% (Jul 11, 1:00 AM)30.19 "Hg (Jul 11, 1:00 AM)
Low32 °F (Jul 11, 1:00 AM)32% (Jul 20, 2:00 PM)29.31 "Hg (Jul 20, 5:00 AM)
Average43 °F84%29.84 "Hg
* Reported Jul 8 6:00 PM — Jul 23 6:00 PM, Qikiqtarjuaq, Weather by CustomWeather, © 2014

Note: Actual official high and low records may vary slightly from our data, if they occured in-between our weather recording intervals... More about our weather records

Advertising

Qikiqtarjuaq weather history for previous 24 hours

 ConditionsComfort  
Time TempWeatherWind HumidityBarometerVisibility
6:00 PM
Jul 23
36 °FLow clouds.3 mph100%29.90 "Hg9 mi
5:00 PM37 °FLow clouds.6 mph100%29.88 "Hg9 mi
4:00 PM37 °FMostly cloudy.5 mph93%29.88 "Hg14 mi
3:00 PM41 °FFog.6 mph87%29.86 "Hg15 mi
2:00 PM37 °FFog.3 mph100%29.85 "Hg15 mi
1:00 PM37 °FFog.3 mph93%29.85 "Hg2 mi
12:00 PM36 °FFog.5 mph100%29.84 "Hg2 mi
11:00 AM37 °FFog.2 mph93%29.84 "Hg2 mi
10:00 AM37 °FFog.3 mph100%29.83 "Hg3 mi
9:00 AM37 °FDrizzle. Fog.2 mph93%29.82 "Hg1 mi
8:00 AM36 °FDrizzle. Fog.5 mph100%29.81 "Hg1 mi
7:00 AM37 °FDrizzle. Fog.6 mph93%29.80 "Hg1 mi
6:00 AM36 °FDrizzle. Fog.7 mph100%29.79 "Hg1 mi
5:00 AM36 °FFog.8 mph100%29.79 "Hg1 mi
4:00 AM37 °FFog.9 mph93%29.78 "Hg1 mi
1:00 AM37 °FMostly cloudy.3 mph100%29.74 "Hg9 mi
12:00 AM39 °FLow clouds.No wind93%29.74 "Hg9 mi
11:00 PM
Jul 22
39 °FLow clouds.3 mph93%29.74 "Hg9 mi
10:01 PM37 °FMostly cloudy.No wind93%29.73 "Hg8 mi
9:58 PM37 °FFog.2 mph93%29.73 "Hg3 mi
9:00 PM37 °FLow clouds.8 mph100%29.72 "Hg9 mi
8:00 PM37 °FLow clouds.9 mph100%29.72 "Hg9 mi
7:00 PM37 °FLow clouds.8 mph100%29.70 "Hg9 mi
Weather by CustomWeather, © 2014

See weather overviewHow to use our weather pages